Regional Weather Roundup
Issued by NWS

Home | Current Version | Previous Version | Graphics & Text | Print | Product List | Glossary On
Versions: 1 2 3 4 5 6 7 8 9 10 11 12 13 14 15 16 17 18 19 20 21 22 23 24 25 26 27 28 29 30 31 32 33 34 35 36 37 38 39 40 41 42 43 44 45 46 47 48 49 50
000
ASUS43 KBIS 212002
RWRND

NORTH DAKOTA REGIONAL WEATHER ROUNDUP
NATIONAL WEATHER SERVICE BISMARCK ND
200 PM CST TUE FEB 21 2017

NOTE: "FAIR" INDICATES FEW OR NO CLOUDS BELOW 12,000 FEET WITH NO
SIGNIFICANT WEATHER AND/OR OBSTRUCTIONS TO VISIBILITY.


NDZ001>003-009>011-017-212100-
NORTHWEST NORTH DAKOTA

CITY           SKY/WX    TMP DP  RH WIND       PRES   REMARKS
WILLISTON      CLOUDY    40  32  73 SW10      29.65F
MINOT          FAIR      48  36  63 SW10      29.63F
MINOT AFB      CLOUDY    40  36  83 W8        29.62F
$$

NDZ018>021-031>035-040>046-212100-
SOUTHWEST NORTH DAKOTA

CITY           SKY/WX    TMP DP  RH WIND       PRES   REMARKS
BISMARCK       CLOUDY    53  35  50 CALM      29.68S
DICKINSON      CLOUDY    54  33  45 SW6       29.66F
GARRISON         N/A     42  35  76 S5        29.65F
HETTINGER ARPT PTSUNNY   62  31  31 NW6       29.68F
$$

NDZ004>008-012>016-024-026-027-054-212100-
NORTHEAST NORTH DAKOTA

CITY           SKY/WX    TMP DP  RH WIND       PRES   REMARKS
GRAND FORKS    MOSUNNY   45  32  60 CALM      29.65F
GRND FRKS AFB  PTSUNNY   39  37  92 N10       29.66S FOG
DEVILS LAKE    FAIR      38  33  82 W6        29.65S
$$

NDZ022-023-025-028>030-036>039-047>053-212100-
SOUTHEAST NORTH DAKOTA

CITY           SKY/WX    TMP DP  RH WIND       PRES   REMARKS
FARGO          MOSUNNY   46  38  73 SW10      29.66S
JAMESTOWN      FAIR      46  38  73 W7        29.66R
$$





USA.gov is the U.S. government's official web portal to all federal, state and local government web resources and services.